period_start,C,m1,H,J0,J1,J2,J3,J4,J5,JA,JB,JC,JD,JJ,JK,JN,#
2015-08-09 00:03:46,0.01,0.02,0.00,31.59,35.20,37.35,4.49,26.63,1000.98,2005.03,3321.95,3127.96,3432.60,349.61,332.27,0.71,0000 0000 0000 0000 000000
2015-08-09 00:08:47,0.07,0.02,0.00,31.61,35.22,37.38,4.55,26.54,1000.93,2005.00,3321.24,3127.29,3432.03,349.70,332.25,0.74,0000 0000 0000 0000 000000
2015-08-09 00:13:49,0.03,0.02,0.00,31.62,35.25,37.40,4.63,26.63,1000.82,2005.00,3320.81,3127.00,3431.67,350.43,332.93,0.77,0000 0000 0000 0000 000000
2015-08-09 00:18:50,0.04,0.02,0.00,31.62,35.26,37.41,4.56,26.58,1000.87,2005.00,3320.07,3126.80,3431.03,350.15,332.94,0.80,0000 0000 0000 0000 000000
2015-08-09 00:23:51,0.05,0.02,0.00,31.64,35.28,37.43,4.60,26.60,1000.97,2005.00,3319.67,3126.07,3430.74,350.20,332.77,0.83,0000 0000 0000 0000 000000
2015-08-09 00:28:53,0.02,0.02,0.00,31.66,35.30,37.46,4.50,26.55,1000.96,2004.96,3318.99,3125.94,3430.04,349.98,332.59,0.86,0000 0000 0000 0000 000000
2015-08-09 00:33:54,0.06,0.03,0.00,31.67,35.32,37.48,4.65,26.57,1000.93,2004.93,3318.29,3125.42,3429.70,350.04,332.62,0.88,0000 0000 0000 0000 000000
2015-08-09 00:38:55,0.01,0.03,0.00,31.69,35.34,37.49,4.56,26.57,1000.86,2004.85,3317.89,3125.01,3429.05,350.10,332.66,0.91,0000 0000 0000 0000 000000
2015-08-09 00:43:56,-0.02,0.03,0.00,31.70,35.35,37.51,4.61,26.71,1000.67,2004.49,3317.09,3124.80,3428.64,349.90,332.39,0.94,0000 0000 0000 0000 000000
2015-08-09 00:48:57,0.02,0.03,0.00,31.72,35.37,37.53,4.54,26.61,1000.54,2004.14,3316.63,3124.15,3428.03,349.72,332.23,0.97,0000 0000 0000 0000 000000
2015-08-09 00:53:58,0.02,0.03,0.00,31.72,35.39,37.55,4.51,26.61,1000.55,2004.03,3315.97,3123.90,3427.46,349.70,332.20,1.00,0000 0000 0000 0000 000000
2015-08-09 00:58:59,0.06,0.03,0.00,31.74,35.40,37.56,4.57,26.52,1000.57,2004.00,3315.23,3123.26,3427.00,350.02,332.57,1.03,0000 0000 0000 0000 000000
2015-08-09 01:04:01,0.03,0.03,0.00,31.75,35.42,37.57,4.58,26.59,1000.64,2004.00,3314.82,3123.01,3426.56,350.11,332.39,1.06,0000 0000 0000 0000 000000
2015-08-09 01:09:02,0.03,0.03,0.00,31.76,35.44,37.59,4.55,26.60,1000.67,2004.00,3314.07,3122.85,3426.01,350.26,332.22,1.09,0000 0000 0000 0000 000000
2015-08-09 01:14:03,0.06,0.03,0.00,31.77,35.45,37.61,4.46,26.43,1000.72,2004.00,3313.61,3122.12,3425.71,349.83,332.19,1.12,0000 0000 0000 0000 000000
2015-08-09 01:19:04,0.02,0.03,0.00,31.78,35.47,37.62,4.57,26.48,1000.89,2004.00,3313.03,3122.00,3425.05,350.18,332.61,1.15,0000 0000 0000 0000 000000
2015-08-09 01:24:06,0.04,0.03,0.00,31.80,35.48,37.63,4.52,26.48,1000.81,2003.97,3312.59,3121.73,3424.81,349.80,332.21,1.18,0000 0000 0000 0000 000000
2015-08-09 01:29:07,0.05,0.04,0.00,31.80,35.50,37.65,4.54,26.56,1000.69,2003.95,3311.98,3121.05,3424.09,349.94,332.38,1.21,0000 0000 0000 0000 000000
2015-08-09 01:34:08,0.01,0.04,0.00,31.82,35.51,37.67,4.49,26.48,1000.68,2003.88,3311.18,3120.95,3423.90,349.78,332.24,1.24,0000 0000 0000 0000 000000
2015-08-09 01:39:09,0.05,0.04,0.00,31.82,35.52,37.68,4.52,26.54,1000.56,2003.85,3310.89,3120.44,3423.22,349.93,332.33,1.27,0000 0000 0000 0000 000000
2015-08-09 01:44:10,-0.02,0.04,0.00,31.85,35.54,37.70,4.56,26.63,1000.55,2003.65,3310.17,3120.05,3422.94,349.73,332.01,1.29,0000 0000 0000 0000 000000
2015-08-09 01:49:11,0.01,0.04,0.00,31.86,35.55,37.71,4.65,26.58,1000.53,2003.31,3309.59,3119.90,3422.22,350.36,332.56,1.32,0000 0000 0000 0000 000000
2015-08-09 01:54:12,0.02,0.04,0.00,31.87,35.57,37.72,4.52,26.42,1000.53,2003.11,3308.98,3119.14,3421.95,349.89,332.53,1.35,0000 0000 0000 0000 000000
2015-08-09 01:59:14,0.04,0.04,0.00,31.88,35.58,37.73,4.56,26.46,1000.52,2003.07,3308.28,3118.99,3421.29,349.80,332.04,1.38,0000 0000 0000 0000 000000
2015-08-09 02:04:15,0.06,0.04,0.00,31.89,35.60,37.74,4.63,26.58,1000.50,2003.01,3307.52,3118.46,3420.83,351.03,333.10,1.41,0000 0000 0000 0000 000000
2015-08-09 02:09:16,0.02,0.04,0.00,31.90,35.60,37.75,4.55,26.52,1000.50,2003.01,3307.00,3118.01,3420.21,350.09,332.42,1.44,0000 0000 0000 0000 000000
2015-08-09 02:14:18,0.02,0.04,0.00,31.92,35.62,37.76,4.52,26.42,1000.50,2003.00,3306.51,3117.92,3419.99,350.07,332.20,1.47,0000 0000 0000 0000 000000
2015-08-09 02:19:19,0.05,0.05,0.00,31.92,35.63,37.77,4.49,26.42,1000.50,2003.00,3306.00,3117.25,3419.36,350.08,332.29,1.50,0000 0000 0000 0000 000000
2015-08-09 02:24:20,0.02,0.05,0.00,31.93,35.65,37.79,4.59,26.45,1000.50,2003.00,3305.53,3117.01,3419.01,349.81,332.10,1.53,0000 0000 0000 0000 000000
2015-08-09 02:29:21,0.02,0.05,0.00,31.95,35.66,37.79,4.51,26.39,1000.50,2003.00,3305.01,3116.96,3418.81,350.11,332.07,1.56,0000 0000 0000 0000 000000
2015-08-09 02:34:22,0.06,0.05,0.00,31.97,35.67,37.81,4.61,26.45,1000.50,2002.99,3304.52,3116.39,3418.07,350.48,332.43,1.59,0000 0000 0000 0000 000000
2015-08-09 02:39:24,0.02,0.05,0.00,31.99,35.69,37.82,4.55,26.52,1000.50,2002.96,3303.96,3116.00,3417.83,349.86,332.16,1.62,0000 0000 0000 0000 000000
2015-08-09 02:44:25,0.05,0.05,0.00,32.00,35.70,37.83,4.59,26.52,1000.49,2002.94,3303.18,3115.79,3417.12,350.35,332.31,1.65,0000 0000 0000 0000 000000
2015-08-09 02:49:26,0.01,0.05,0.00,32.02,35.72,37.86,4.49,26.54,1000.49,2002.77,3302.90,3115.06,3416.93,349.87,331.87,1.68,0000 0000 0000 0000 000000
2015-08-09 02:54:28,0.00,0.05,0.00,32.04,35.73,37.87,4.60,26.45,1000.47,2002.57,3302.12,3114.99,3416.22,349.89,331.75,1.70,0000 0000 0000 0000 000000
2015-08-09 02:59:29,0.02,0.05,0.00,32.05,35.75,37.88,4.61,26.42,1000.50,2002.55,3301.86,3114.78,3415.99,350.12,332.09,1.73,0000 0000 0000 0000 000000
2015-08-09 03:04:30,0.01,0.05,0.00,32.07,35.75,37.89,4.54,26.43,1000.50,2002.23,3301.13,3114.15,3415.64,349.87,331.84,1.76,0000 0000 0000 0000 000000
2015-08-09 03:09:31,0.01,0.05,0.00,32.09,35.77,37.91,4.56,26.57,1000.50,2002.06,3300.73,3114.00,3415.03,350.34,332.28,1.79,0000 0000 0000 0000 000000
2015-08-09 03:14:33,0.03,0.05,0.00,32.11,35.79,37.92,4.53,26.52,1000.50,2002.04,3300.07,3113.71,3414.86,350.37,332.38,1.82,0000 0000 0000 0000 000000
2015-08-09 03:19:34,0.03,0.06,0.00,32.13,35.80,37.93,4.50,26.65,1000.50,2002.00,3299.96,3113.09,3414.18,350.15,332.13,1.85,0000 0000 0000 0000 000000
2015-08-09 03:24:35,0.03,0.06,0.00,32.15,35.82,37.95,4.55,26.48,1000.52,2002.00,3299.23,3112.98,3413.93,349.64,331.58,1.88,0000 0000 0000 0000 000000
2015-08-09 03:29:36,0.08,0.06,0.00,32.17,35.83,37.96,4.58,26.57,1000.51,2002.00,3298.43,3112.36,3413.17,350.55,332.36,1.91,0000 0000 0000 0000 000000
2015-08-09 03:34:38,0.03,0.06,0.00,32.19,35.85,37.97,4.60,26.51,1000.50,2002.00,3297.69,3111.99,3412.80,350.45,332.21,1.94,0000 0000 0000 0000 000000
2015-08-09 03:39:39,0.06,0.06,0.00,32.21,35.86,38.00,4.54,26.43,1000.50,2002.00,3296.99,3111.52,3412.07,349.80,331.65,1.97,0000 0000 0000 0000 000000
2015-08-09 03:44:40,0.04,0.06,0.00,32.22,35.88,38.02,4.61,26.53,1000.50,2001.98,3296.21,3111.01,3411.67,350.16,332.05,2.00,0000 0000 0000 0000 000000
2015-08-09 03:49:41,0.06,0.06,0.00,32.25,35.90,38.02,4.49,26.49,1000.50,2001.96,3295.37,3110.47,3410.96,349.50,331.54,2.03,0000 0000 0000 0000 000000
2015-08-09 03:54:43,0.12,0.07,0.00,32.26,35.91,38.04,4.52,26.48,1000.50,2001.93,3293.86,3109.50,3409.96,349.84,331.68,2.06,0000 0000 0000 0000 000000
2015-08-09 03:59:44,0.06,0.07,0.00,32.27,35.92,38.06,4.58,26.34,1000.50,2001.74,3292.44,3108.52,3408.92,350.27,332.15,2.09,0000 0000 0000 0000 000000
2015-08-09 04:04:45,-0.02,0.07,0.00,32.30,35.95,38.07,4.60,26.61,1000.51,2001.41,3291.43,3107.99,3408.07,350.50,332.19,2.11,0000 0000 0000 0000 000000
2015-08-09 04:09:47,0.00,0.07,0.00,32.30,35.96,38.09,4.55,26.63,1000.57,2001.17,3291.04,3107.92,3407.98,350.11,332.10,2.14,0000 0000 0000 0000 000000
2015-08-09 04:14:48,0.03,0.07,0.00,32.32,35.98,38.11,4.48,26.49,1000.53,2001.09,3290.97,3107.39,3407.60,349.65,331.63,2.17,0000 0000 0000 0000 000000
2015-08-09 04:19:49,0.02,0.07,0.00,32.34,36.00,38.13,4.51,26.57,1000.50,2001.01,3290.72,3107.02,3407.04,349.91,331.46,2.20,0000 0000 0000 0000 000000
2015-08-09 04:24:51,0.00,0.07,0.00,32.35,36.00,38.13,4.57,26.55,1000.51,2001.00,3290.48,3107.00,3406.99,350.47,332.09,2.23,0000 0000 0000 0000 000000
2015-08-09 04:29:52,0.02,0.07,0.00,32.36,36.03,38.15,4.51,26.58,1000.51,2000.99,3290.14,3106.99,3406.78,350.05,331.76,2.26,0000 0000 0000 0000 000000
2015-08-09 04:34:53,0.02,0.07,0.00,32.37,36.04,38.17,4.58,26.62,1000.50,2000.95,3289.97,3106.71,3406.16,349.81,331.49,2.29,0000 0000 0000 0000 000000
2015-08-09 04:39:54,0.03,0.07,0.00,32.39,36.05,38.19,4.64,26.63,1000.50,2000.96,3289.67,3106.23,3406.01,350.66,332.28,2.32,0000 0000 0000 0000 000000
2015-08-09 04:44:56,-0.01,0.07,0.00,32.40,36.07,38.20,4.49,26.52,1000.50,2000.84,3289.19,3106.05,3405.98,350.05,331.56,2.35,0000 0000 0000 0000 000000
2015-08-09 04:49:57,0.00,0.07,0.00,32.42,36.08,38.21,4.60,26.58,1000.50,2000.71,3288.99,3106.00,3405.78,350.00,331.85,2.38,0000 0000 0000 0000 000000
2015-08-09 04:54:58,0.02,0.07,0.00,32.42,36.10,38.23,4.53,26.55,1000.50,2000.69,3288.76,3105.93,3405.22,349.60,331.15,2.41,0000 0000 0000 0000 000000
2015-08-09 04:59:59,0.01,0.07,0.00,32.45,36.11,38.24,4.55,26.48,1000.50,2000.44,3288.26,3105.64,3405.01,350.58,332.11,2.44,0000 0000 0000 0000 000000
2015-08-09 05:05:00,-0.02,0.07,0.00,32.47,36.13,38.26,4.54,26.47,1000.51,2000.20,3288.02,3105.21,3404.97,349.97,331.43,2.47,0000 0000 0000 0000 000000
2015-08-09 05:10:02,-0.02,0.07,0.00,32.50,36.15,38.28,4.54,26.55,1000.50,2000.04,3288.00,3105.03,3404.91,349.74,331.43,2.50,0000 0000 0000 0000 000000
2015-08-09 05:15:03,0.01,0.07,0.00,32.51,36.16,38.29,4.52,26.46,1000.51,2000.03,3287.98,3105.00,3404.60,349.76,331.33,2.52,0000 0000 0000 0000 000000
2015-08-09 05:20:04,0.02,0.07,0.00,32.53,36.18,38.30,4.57,26.61,1000.52,2000.02,3287.66,3105.00,3404.19,350.11,331.62,2.55,0000 0000 0000 0000 000000
2015-08-09 05:25:05,0.01,0.08,0.00,32.55,36.18,38.32,4.53,26.56,1000.51,2000.01,3287.06,3104.94,3404.00,349.40,330.98,2.58,0000 0000 0000 0000 000000
2015-08-09 05:30:07,0.02,0.08,0.00,32.57,36.20,38.34,4.58,26.51,1000.50,2000.01,3287.00,3104.56,3404.00,349.77,331.33,2.61,0000 0000 0000 0000 000000
2015-08-09 05:35:08,0.03,0.08,0.00,32.57,36.21,38.35,4.60,26.59,1000.50,2000.00,3286.86,3104.07,3403.75,350.51,332.01,2.64,0000 0000 0000 0000 000000
2015-08-09 05:40:10,0.02,0.08,0.00,32.60,36.23,38.36,4.58,26.50,1000.46,2000.00,3286.40,3104.00,3403.23,350.30,331.73,2.67,0000 0000 0000 0000 000000
2015-08-09 05:45:11,0.01,0.08,0.00,32.61,36.25,38.38,4.56,26.37,1000.37,2000.00,3286.09,3104.00,3403.02,349.62,331.08,2.70,0000 0000 0000 0000 000000
2015-08-09 05:50:12,0.00,0.08,0.00,32.62,36.26,38.39,4.56,26.52,1000.31,1999.99,3286.00,3103.97,3403.00,350.15,331.44,2.73,0000 0000 0000 0000 000000
2015-08-09 05:55:13,0.01,0.08,0.00,32.64,36.28,38.40,4.48,26.36,1000.11,1999.98,3285.99,3103.80,3402.98,349.70,331.19,2.76,0000 0000 0000 0000 000000
2015-08-09 06:00:14,0.01,0.08,0.00,32.66,36.29,38.42,4.60,26.53,1000.12,1999.93,3285.95,3103.39,3402.78,350.39,331.61,2.79,0000 0000 0000 0000 000000
2015-08-09 06:05:15,-0.00,0.08,0.00,32.67,36.30,38.44,4.57,26.59,1000.14,1999.78,3285.74,3103.14,3402.29,349.95,331.17,2.82,0000 0000 0000 0000 000000
2015-08-09 06:10:17,-0.03,0.08,0.00,32.69,36.33,38.45,4.58,26.56,1000.08,1999.42,3285.26,3103.01,3402.07,350.14,331.25,2.85,0000 0000 0000 0000 000000
2015-08-09 06:15:18,-0.04,0.08,0.00,32.71,36.34,38.47,4.55,26.50,1000.04,1999.25,3285.05,3103.00,3402.00,350.28,331.56,2.88,0000 0000 0000 0000 000000
2015-08-09 06:20:19,-0.01,0.08,0.00,32.72,36.35,38.48,4.57,26.52,1000.04,1999.07,3285.00,3102.98,3401.98,349.95,331.02,2.91,0000 0000 0000 0000 000000
2015-08-09 06:25:20,0.01,0.08,0.00,32.75,36.37,38.49,4.55,26.59,1000.02,1999.01,3284.98,3102.85,3401.85,349.88,330.94,2.93,0000 0000 0000 0000 000000
2015-08-09 06:30:21,0.02,0.08,0.00,32.77,36.39,38.51,4.59,26.48,1000.02,1999.01,3284.85,3102.50,3401.38,350.61,331.53,2.96,0000 0000 0000 0000 000000
2015-08-09 06:35:23,0.03,0.08,0.00,32.80,36.40,38.52,4.50,26.43,1000.02,1999.01,3284.44,3102.13,3401.10,349.99,331.31,2.99,0000 0000 0000 0000 000000
2015-08-09 06:40:24,0.01,0.08,0.00,32.82,36.42,38.53,4.51,26.54,1000.02,1999.00,3284.04,3102.01,3401.00,349.35,330.42,3.02,0000 0000 0000 0000 000000
2015-08-09 06:45:25,0.00,0.08,0.00,32.86,36.43,38.55,4.53,26.41,1000.02,1998.99,3284.00,3102.00,3400.99,350.12,331.03,3.05,0000 0000 0000 0000 000000
2015-08-09 06:50:26,0.01,0.08,0.00,32.88,36.45,38.57,4.57,26.43,1000.03,1998.98,3283.97,3101.98,3400.79,349.98,331.18,3.08,0000 0000 0000 0000 000000
2015-08-09 06:55:27,0.01,0.08,0.00,32.91,36.47,38.58,4.51,26.48,1000.03,1998.95,3283.88,3101.86,3400.39,349.97,330.82,3.11,0000 0000 0000 0000 000000
2015-08-09 07:00:29,0.03,0.08,0.00,32.94,36.49,38.60,4.56,26.46,1000.01,1998.84,3283.26,3101.34,3400.03,350.05,330.88,3.14,0000 0000 0000 0000 000000
2015-08-09 07:05:30,-0.07,0.08,0.00,32.98,36.50,38.62,4.54,26.48,1000.02,1998.41,3283.00,3101.03,3399.98,350.09,331.03,3.17,0000 0000 0000 0000 000000
2015-08-09 07:10:31,0.01,0.08,0.00,33.01,36.53,38.64,4.55,26.50,1000.03,1998.28,3282.98,3101.00,3399.94,350.23,331.08,3.20,0000 0000 0000 0000 000000
2015-08-09 07:15:32,-0.01,0.08,0.00,33.05,36.55,38.65,4.53,26.43,1000.05,1998.07,3282.65,3100.95,3399.29,350.03,330.69,3.23,0000 0000 0000 0000 000000
2015-08-09 07:20:34,0.01,0.08,0.00,33.09,36.57,38.68,4.59,26.50,1000.09,1998.03,3282.25,3100.75,3399.01,349.98,330.74,3.26,0000 0000 0000 0000 000000
2015-08-09 07:25:35,0.02,0.08,0.00,33.12,36.59,38.69,4.53,26.52,1000.14,1998.00,3282.01,3100.25,3399.00,350.00,330.70,3.29,0000 0000 0000 0000 000000
2015-08-09 07:30:37,0.01,0.08,0.00,33.15,36.61,38.72,4.52,26.43,1000.14,1998.00,3281.97,3100.01,3398.80,349.52,330.28,3.32,0000 0000 0000 0000 000000
2015-08-09 07:35:38,0.04,0.08,0.00,33.17,36.64,38.74,4.63,26.48,1000.30,1998.00,3281.42,3099.95,3398.14,350.13,331.03,3.35,0000 0000 0000 0000 000000
2015-08-09 07:40:39,0.03,0.08,0.00,33.18,36.65,38.77,4.55,26.43,1000.38,1997.98,3281.00,3099.29,3397.98,350.42,331.16,3.37,0000 0000 0000 0000 000000
2015-08-09 07:45:40,0.00,0.08,0.00,33.20,36.68,38.79,4.52,26.46,1000.44,1997.92,3280.86,3099.02,3397.64,350.48,331.08,3.40,0000 0000 0000 0000 000000
2015-08-09 07:50:42,0.00,0.08,0.00,33.22,36.70,38.82,4.65,26.43,1000.48,1997.77,3280.31,3098.99,3397.05,350.78,331.51,3.43,0000 0000 0000 0000 000000
2015-08-09 07:55:43,-0.01,0.08,0.00,33.25,36.73,38.84,4.63,26.52,1000.50,1997.63,3280.09,3098.96,3397.00,350.28,330.86,3.46,0000 0000 0000 0000 000000
2015-08-09 08:00:44,-0.03,0.08,0.00,33.29,36.75,38.87,4.49,26.41,1000.50,1997.20,3280.00,3098.45,3396.95,350.20,330.87,3.49,0000 0000 0000 0000 000000
2015-08-09 08:05:45,0.01,0.08,0.00,33.34,36.77,38.88,4.47,26.49,1000.50,1997.03,3279.75,3098.03,3396.29,349.83,330.53,3.52,0000 0000 0000 0000 000000
2015-08-09 08:10:47,0.02,0.08,0.00,33.38,36.80,38.91,4.60,26.47,1000.50,1997.01,3279.29,3098.00,3396.02,350.34,330.86,3.55,0000 0000 0000 0000 000000
2015-08-09 08:15:48,0.01,0.08,0.00,33.40,36.82,38.93,4.51,26.41,1000.50,1997.00,3279.02,3097.96,3396.00,349.97,330.43,3.58,0000 0000 0000 0000 000000
2015-08-09 08:20:49,0.03,0.08,0.00,33.40,36.84,38.96,4.58,26.40,1000.50,1997.00,3278.92,3097.60,3395.85,350.33,330.88,3.61,0000 0000 0000 0000 000000
2015-08-09 08:25:50,0.04,0.08,0.00,33.42,36.87,38.99,4.44,26.37,1000.51,1997.00,3278.43,3097.07,3395.37,349.84,330.43,3.64,0000 0000 0000 0000 000000
2015-08-09 08:30:51,0.01,0.09,0.00,33.43,36.89,39.01,4.56,26.36,1000.52,1997.00,3278.03,3097.00,3395.03,350.19,330.74,3.67,0000 0000 0000 0000 000000
2015-08-09 08:35:53,-0.01,0.09,0.00,33.46,36.92,39.04,4.46,26.32,1000.51,1996.96,3278.00,3097.00,3395.00,350.30,330.77,3.70,0000 0000 0000 0000 000000
2015-08-09 08:40:54,0.00,0.09,0.00,33.49,36.94,39.06,4.45,26.33,1000.52,1996.91,3277.96,3096.94,3394.92,350.34,330.84,3.73,0000 0000 0000 0000 000000
2015-08-09 08:45:55,0.02,0.09,0.00,33.51,36.97,39.09,4.45,26.39,1000.53,1996.73,3277.58,3096.54,3394.45,349.84,330.30,3.75,0000 0000 0000 0000 000000
2015-08-09 08:50:56,-0.04,0.09,0.00,33.53,36.99,39.11,4.51,26.43,1000.51,1996.39,3277.05,3096.03,3394.02,349.96,330.41,3.78,0000 0000 0000 0000 000000
2015-08-09 08:55:57,-0.02,0.08,0.00,33.55,37.01,39.13,4.56,26.45,1000.52,1996.09,3277.00,3096.00,3393.99,350.85,331.19,3.81,0000 0000 0000 0000 000000
2015-08-09 09:00:59,0.00,0.08,0.00,33.56,37.04,39.16,4.57,26.41,1000.53,1996.02,3276.91,3095.99,3393.83,349.82,330.24,3.84,0000 0000 0000 0000 000000
2015-08-09 09:06:00,0.06,0.09,0.00,33.57,37.06,39.18,4.51,26.41,1000.56,1996.00,3276.24,3095.60,3393.13,349.81,330.29,3.87,0000 0000 0000 0000 000000
2015-08-09 09:11:01,0.01,0.09,0.00,33.59,37.08,39.21,4.49,26.39,1000.57,1996.00,3276.02,3095.16,3393.00,349.96,330.45,3.90,0000 0000 0000 0000 000000
2015-08-09 09:16:03,0.00,0.09,0.00,33.60,37.10,39.23,4.47,26.31,1000.57,1996.00,3276.00,3095.02,3392.98,349.39,330.00,3.93,0000 0000 0000 0000 000000
2015-08-09 09:21:04,0.03,0.09,0.00,33.60,37.13,39.25,4.58,26.30,1000.55,1995.94,3275.58,3094.97,3392.56,350.68,330.99,3.96,0000 0000 0000 0000 000000
2015-08-09 09:26:05,-0.01,0.09,0.00,33.61,37.15,39.27,4.56,26.28,1000.56,1995.79,3275.10,3094.70,3392.04,350.21,330.70,3.99,0000 0000 0000 0000 000000
2015-08-09 09:31:06,-0.01,0.09,0.00,33.62,37.16,39.29,4.49,26.43,1000.59,1995.47,3275.01,3094.18,3392.00,349.89,330.18,4.02,0000 0000 0000 0000 000000
2015-08-09 09:36:07,-0.04,0.09,0.00,33.63,37.19,39.31,4.49,26.41,1000.56,1995.19,3275.00,3094.02,3391.98,350.17,330.55,4.05,0000 0000 0000 0000 000000
2015-08-09 09:41:09,0.01,0.09,0.00,33.65,37.20,39.33,4.54,26.46,1000.58,1995.04,3274.69,3093.99,3391.54,350.18,330.46,4.08,0000 0000 0000 0000 000000
2015-08-09 09:46:10,0.02,0.09,0.00,33.65,37.23,39.35,4.52,26.33,1000.77,1995.01,3274.23,3093.95,3391.15,349.94,330.35,4.11,0000 0000 0000 0000 000000
2015-08-09 09:51:11,0.01,0.09,0.00,33.67,37.24,39.36,4.57,26.36,1000.92,1995.00,3274.01,3093.73,3391.00,350.38,330.66,4.14,0000 0000 0000 0000 000000
2015-08-09 09:56:12,0.02,0.09,0.00,33.68,37.26,39.39,4.47,26.34,1000.98,1995.00,3273.99,3093.22,3391.00,350.29,330.75,4.16,0000 0000 0000 0000 000000
2015-08-09 10:01:14,0.01,0.09,0.00,33.70,37.28,39.40,4.56,26.44,1000.99,1995.00,3273.81,3093.03,3390.98,350.43,330.79,4.19,0000 0000 0000 0000 000000
2015-08-09 10:06:15,0.03,0.09,0.00,33.70,37.30,39.42,4.59,26.48,1000.99,1995.00,3273.12,3093.00,3390.65,350.06,330.58,4.22,0000 0000 0000 0000 000000
2015-08-09 10:11:16,0.01,0.09,0.00,33.70,37.31,39.44,4.56,26.42,1000.99,1994.99,3273.02,3092.99,3390.26,350.01,330.35,4.25,0000 0000 0000 0000 000000
2015-08-09 10:16:17,0.00,0.09,0.00,33.71,37.33,39.45,4.53,26.27,1000.99,1994.99,3273.00,3092.96,3390.06,350.03,330.36,4.28,0000 0000 0000 0000 000000
2015-08-09 10:21:19,0.01,0.09,0.00,33.72,37.35,39.46,4.58,26.37,1000.99,1994.94,3272.97,3092.57,3390.00,350.19,330.56,4.31,0000 0000 0000 0000 000000
2015-08-09 10:26:20,0.00,0.09,0.00,33.74,37.36,39.48,4.54,26.28,1000.99,1994.87,3272.75,3092.16,3389.97,350.11,330.50,4.34,0000 0000 0000 0000 000000
2015-08-09 10:31:21,0.00,0.09,0.00,33.75,37.38,39.49,4.63,26.38,1000.99,1994.75,3272.19,3092.01,3389.81,350.65,330.54,4.37,0000 0000 0000 0000 000000
2015-08-09 10:36:23,-0.03,0.09,0.00,33.75,37.40,39.51,4.59,26.38,1000.99,1994.47,3272.03,3092.00,3389.31,350.32,330.69,4.40,0000 0000 0000 0000 000000
2015-08-09 10:41:24,-0.03,0.09,0.00,33.75,37.41,39.52,4.52,26.35,1000.99,1994.24,3272.00,3091.99,3389.03,349.67,329.98,4.43,0000 0000 0000 0000 000000
2015-08-09 10:46:25,-0.01,0.09,0.00,33.77,37.43,39.55,4.59,26.31,1000.99,1994.08,3271.99,3091.97,3389.00,350.19,330.44,4.46,0000 0000 0000 0000 000000
2015-08-09 10:51:26,0.00,0.09,0.00,33.77,37.44,39.56,4.51,26.32,1000.99,1994.04,3271.93,3091.87,3388.99,349.55,329.98,4.49,0000 0000 0000 0000 000000
2015-08-09 10:56:28,0.02,0.09,0.00,33.77,37.45,39.57,4.55,26.34,1000.99,1994.03,3271.78,3091.59,3388.94,349.97,330.03,4.52,0000 0000 0000 0000 000000
2015-08-09 11:01:29,0.04,0.09,0.00,33.77,37.47,39.59,4.49,26.49,1000.99,1994.00,3271.32,3091.20,3388.61,349.68,330.03,4.55,0000 0000 0000 0000 000000
2015-08-09 11:06:30,0.02,0.09,0.00,33.77,37.48,39.60,4.49,26.45,1000.99,1994.00,3271.01,3091.01,3388.08,350.01,330.48,4.57,0000 0000 0000 0000 000000
2015-08-09 11:11:32,0.00,0.09,0.00,33.78,37.49,39.60,4.57,26.46,1000.99,1994.00,3271.00,3091.00,3388.00,350.09,330.52,4.60,0000 0000 0000 0000 000000
2015-08-09 11:16:33,0.00,0.09,0.00,33.81,37.50,39.61,4.51,26.43,1000.99,1993.99,3270.99,3091.00,3388.00,350.05,330.52,4.63,0000 0000 0000 0000 000000
2015-08-09 11:21:34,0.00,0.09,0.00,33.86,37.51,39.60,4.51,26.43,1000.99,1993.98,3270.95,3090.99,3388.00,349.63,330.00,4.66,0000 0000 0000 0000 000000
2015-08-09 11:26:35,0.03,0.09,0.00,33.90,37.53,39.60,4.54,26.43,1000.99,1993.95,3270.46,3090.79,3387.81,350.30,330.48,4.69,0000 0000 0000 0000 000000
2015-08-09 11:31:37,0.01,0.09,0.00,33.90,37.53,39.63,4.51,26.37,1000.99,1993.85,3270.06,3090.39,3387.32,349.80,330.04,4.72,0000 0000 0000 0000 000000
2015-08-09 11:36:38,-0.00,0.09,0.00,33.90,37.55,39.65,4.49,26.46,1000.99,1993.80,3270.06,3090.31,3387.30,350.11,330.15,4.75,0000 0000 0000 0000 000000
2015-08-09 11:41:39,-0.02,0.09,0.00,33.92,37.55,39.66,4.51,26.48,1000.99,1993.63,3270.00,3090.06,3387.04,349.70,330.15,4.78,0000 0000 0000 0000 000000
2015-08-09 11:46:40,0.01,0.09,0.00,33.96,37.57,39.66,4.52,26.39,1000.99,1993.67,3270.00,3090.05,3387.02,350.32,330.25,4.81,0000 0000 0000 0000 000000
2015-08-09 11:51:42,-0.04,0.09,0.00,34.01,37.58,39.67,4.52,26.40,1000.99,1993.31,3269.93,3090.00,3387.00,350.07,329.96,4.84,0000 0000 0000 0000 000000
2015-08-09 11:56:43,-0.01,0.09,0.00,34.05,37.59,39.68,4.51,26.34,1000.99,1993.26,3269.89,3090.00,3387.00,350.01,329.97,4.87,0000 0000 0000 0000 000000
2015-08-09 12:01:44,0.00,0.09,0.00,34.06,37.60,39.69,4.48,26.41,1001.00,1993.14,3269.50,3090.00,3386.91,349.85,329.85,4.90,0000 0000 0000 0000 000000
2015-08-09 12:06:45,0.02,0.09,0.00,34.02,37.60,39.72,4.51,26.43,1001.00,1993.05,3269.04,3089.88,3386.43,350.32,330.51,4.93,0000 0000 0000 0000 000000
2015-08-09 12:11:46,0.01,0.09,0.00,33.97,37.62,39.73,4.50,26.35,1000.99,1993.02,3269.01,3089.74,3386.18,350.16,330.32,4.96,0000 0000 0000 0000 000000
2015-08-09 12:16:47,-0.00,0.09,0.00,33.92,37.63,39.74,4.52,26.18,1001.00,1993.01,3269.00,3089.65,3386.08,350.39,330.57,4.98,0000 0000 0000 0000 000000
2015-08-09 12:21:49,0.03,0.09,0.00,33.89,37.63,39.75,4.53,26.32,1001.00,1993.00,3269.00,3089.24,3386.02,349.80,330.02,5.01,0000 0000 0000 0000 000000
2015-08-09 12:26:50,0.00,0.09,0.00,33.86,37.64,39.75,4.51,26.36,1001.00,1993.00,3268.97,3089.06,3386.00,349.61,329.94,5.04,0000 0000 0000 0000 000000
2015-08-09 12:31:51,0.00,0.09,0.00,33.83,37.65,39.76,4.54,26.42,1001.00,1993.00,3268.92,3089.02,3385.99,349.96,330.31,5.07,0000 0000 0000 0000 000000
2015-08-09 12:36:52,0.01,0.09,0.00,33.81,37.65,39.77,4.51,26.36,1001.00,1993.00,3268.54,3089.00,3385.96,350.20,330.61,5.10,0000 0000 0000 0000 000000
2015-08-09 12:41:53,0.01,0.09,0.00,33.80,37.65,39.77,4.54,26.42,1001.00,1993.00,3268.13,3089.00,3385.77,349.90,330.26,5.13,0000 0000 0000 0000 000000
2015-08-09 12:46:55,0.01,0.09,0.00,33.79,37.65,39.78,4.58,26.38,1001.01,1993.00,3268.03,3089.00,3385.47,350.28,330.66,5.16,0000 0000 0000 0000 000000
2015-08-09 12:51:56,0.00,0.09,0.00,33.78,37.66,39.79,4.47,26.43,1001.00,1993.00,3268.00,3088.98,3385.22,349.58,329.85,5.19,0000 0000 0000 0000 000000
2015-08-09 12:56:57,0.00,0.09,0.00,33.76,37.66,39.80,4.48,26.43,1001.01,1993.00,3268.00,3088.98,3385.09,349.82,330.03,5.22,0000 0000 0000 0000 000000
2015-08-09 13:01:58,0.00,0.09,0.00,33.75,37.66,39.81,4.51,26.50,1001.02,1993.00,3267.99,3088.96,3385.04,349.88,330.42,5.25,0000 0000 0000 0000 000000
2015-08-09 13:06:59,0.01,0.09,0.00,33.74,37.67,39.81,4.57,26.47,1001.02,1992.99,3267.89,3088.77,3385.00,350.03,330.47,5.28,0000 0000 0000 0000 000000